Flag for Italy Weather past 2 weeks in Naples, Italy

Now
64 °F

Partly sunny.


Feels Like: 64 °F
Forecast: 59 / 68 °F
Wind: 14 mph from Southwest

Location: Naples / Capodichino

Current Time: May 22, 2015 at 3:36:45 PM

Latest Report: May 22, 2015 at 2:50 PM


Visibility: N/A

Pressure: 29.83 "Hg

Humidity: 56%

Dew point: 48 °F

Location of NaplesLocation

Historic Weather in Naples — Graph

°F

Naples temperature yesterday

Maximum temperature yesterday: 68 °F (at 12:50 AM)
Minimum temperature yesterday: 59 °F (at 9:50 AM)
Average temperature yesterday: 64 °F

Past Weeks' High & Low Weather Summary

 TemperatureHumidityPressure
High86 °F (May 18, 2:20 PM)94% (May 7, 9:50 PM)30.24 "Hg (May 7, 9:50 PM)
Low52 °F (May 22, 5:50 AM)17% (May 12, 2:50 PM)29.74 "Hg (May 15, 1:50 PM)
Average70 °F62%29.98 "Hg
* Reported May 7 1:20 PM — May 22 1:50 PM, Naples, Weather by CustomWeather, © 2015

Note: Actual official high and low records may vary slightly from our data, if they occured in-between our weather recording intervals... More about our weather records

Advertising

Naples weather history for previous 24 hours

 ConditionsComfort  
Time TempWeatherWind HumidityBarometerVisibility
1:50 PM
Fri, May 22
68 °FPartly sunny.10 mph43%29.83 "HgN/A
1:20 PM66 °FScattered clouds.13 mph46%29.83 "HgN/A
12:50 PM63 °FLight rain. Broken clouds.13 mph52%29.86 "HgN/A
12:20 PM61 °FBroken clouds.16 mph55%29.86 "HgN/A
11:50 AM66 °FThundershowers. Broken clouds.18 mph56%29.86 "HgN/A
10:50 AM66 °FScattered clouds.10 mph43%29.86 "HgN/A
10:20 AM66 °FPassing clouds.6 mph43%29.86 "HgN/A
9:50 AM66 °FPassing clouds.5 mph40%29.86 "HgN/A
9:20 AM66 °FPassing clouds.3 mph43%29.86 "HgN/A
8:50 AM64 °FSunny.1 mph49%29.86 "Hg10 mi
8:20 AM63 °FSunny.2 mph56%29.86 "Hg10 mi
7:50 AM63 °FSunny.1 mph59%29.86 "Hg10 mi
6:50 AM57 °FScattered clouds.No wind67%29.86 "HgN/A
6:20 AM52 °FPassing clouds.2 mph67%29.86 "HgN/A
5:50 AM52 °FPassing clouds.3 mph77%29.86 "HgN/A
5:20 AM55 °FPassing clouds.1 mph82%29.86 "HgN/A
4:50 AM57 °FPassing clouds.3 mph82%29.89 "HgN/A
4:20 AM57 °FPassing clouds.No wind82%29.89 "HgN/A
3:50 AM57 °FPassing clouds.1 mph82%29.89 "HgN/A
3:20 AM57 °FPassing clouds.2 mph82%29.89 "HgN/A
2:20 AM59 °FCool.N/A68%29.89 "HgN/A
1:50 AM59 °FPassing clouds.3 mph68%29.92 "HgN/A
12:50 AM59 °FPassing clouds.1 mph63%29.92 "HgN/A
12:20 AM59 °FPassing clouds.1 mph63%29.95 "HgN/A
11:50 PM
Thu, May 21
61 °FPassing clouds.3 mph59%29.95 "HgN/A
11:20 PM61 °FPassing clouds.2 mph59%29.95 "HgN/A
10:50 PM61 °FPassing clouds.No wind59%29.95 "HgN/A
10:20 PM61 °FPassing clouds.2 mph59%29.95 "HgN/A
9:50 PM59 °FPassing clouds.3 mph68%29.98 "HgN/A
9:20 PM63 °FPassing clouds.3 mph59%29.98 "HgN/A
8:50 PM63 °FPartly sunny.6 mph59%29.95 "HgN/A
8:20 PM63 °FPartly sunny.5 mph64%29.95 "HgN/A
7:50 PM64 °FPartly sunny.7 mph60%29.98 "HgN/A
7:20 PM64 °FPartly sunny.10 mph60%29.98 "HgN/A
6:50 PM63 °FPartly sunny.7 mph59%29.95 "HgN/A
6:20 PM64 °FPartly sunny.9 mph60%29.98 "HgN/A
5:50 PM64 °FPartly sunny.7 mph60%29.98 "HgN/A
5:20 PM66 °FBroken clouds.7 mph56%29.98 "HgN/A
4:50 PM64 °FBroken clouds.9 mph60%29.98 "HgN/A
4:20 PM64 °FBroken clouds.8 mph68%29.98 "HgN/A
3:50 PM64 °FBroken clouds.5 mph64%29.98 "HgN/A
3:20 PM66 °FBroken clouds.7 mph60%29.98 "HgN/A
Weather by CustomWeather, © 2015

See weather overviewHow to use our weather pages